Lapse_Rate
6.9 6.8 6.9 6.9 7.2 6.9 7.2 7.3 7.4 7.3 7.1 7.1 7.4 7.8 7.5 7.1 7.3 7.4 7.6 8.0 8.2 8.3 8.4 8.1 8.1 8.2 7.7 7.4 7.5 6.9 7.0 6.6 6.6 7.4 7.5 7.0 6.6 6.1 5.5 5.0 5.0 5.0 5.4
7.9 7.9 7.8 7.6 7.4 7.0 7.2 7.4 7.3 7.2 7.3 7.5 7.6 7.7 7.9 7.6 7.4 7.7 7.8 7.8 8.0 8.2 8.3 8.1 8.0 8.1 7.8 7.4 7.5 7.5 7.0 6.9 6.3 6.9 7.3 6.5 6.8 6.2 5.8 6.0 5.6 5.5 5.8
8.6 8.2 7.7 7.4 7.4 7.4 7.6 7.9 7.7 7.3 7.0 7.1 7.3 7.4 7.6 7.7 7.7 8.0 8.0 8.1 8.0 7.9 8.0 8.0 8.0 8.0 7.8 7.8 7.5 7.4 7.7 7.0 6.8 6.9 6.9 6.7 7.1 6.4 6.1 6.4 6.1 6.1 6.4
7.6 7.9 7.6 7.8 8.1 8.1 7.9 7.7 7.3 7.2 7.2 7.4 7.6 7.6 7.6 7.7 7.8 7.8 7.8 7.9 7.9 7.8 7.8 7.8 8.0 8.0 8.0 7.8 7.7 7.4 7.7 7.6 7.2 6.9 6.6 6.8 6.4 6.5 6.4 6.2 5.8 6.0 6.1
7.7 7.7 8.1 8.2 8.0 7.8 7.5 7.0 7.1 7.2 7.4 7.5 7.4 7.4 7.4 7.5 7.6 7.7 7.7 7.6 7.6 7.6 7.9 8.0 8.1 8.1 8.0 7.9 7.6 7.2 7.3 7.3 7.1 6.8 6.7 6.5 6.6 6.5 6.3 6.2 6.2 5.7 6.0
6.8 7.2 7.9 8.1 7.8 7.7 7.5 7.1 7.2 7.2 7.1 7.1 7.1 7.1 7.1 7.1 7.2 7.3 7.4 7.4 7.5 7.6 7.8 8.1 8.1 8.0 7.9 7.8 7.7 7.2 7.4 6.9 6.8 6.4 6.2 6.5 6.5 6.5 6.4 6.1 6.4 5.8 5.6
7.5 7.0 7.5 8.0 8.0 7.6 7.4 7.2 7.0 7.0 6.9 6.8 6.8 6.8 6.9 7.0 7.1 7.1 7.2 7.3 7.4 7.5 7.7 7.8 8.1 7.9 7.6 7.4 7.5 7.4 6.9 6.6 6.6 6.5 6.4 6.4 6.4 6.4 6.0 6.0 6.1 5.9 5.6
7.8 7.7 7.9 7.8 7.7 7.4 7.0 6.9 6.9 6.8 7.0 7.1 7.2 7.2 7.1 7.1 7.1 7.3 7.3 7.4 7.5 7.5 7.5 7.8 7.5 7.3 7.2 7.1 7.1 6.9 6.7 6.5 6.6 6.6 6.5 6.4 6.2 6.2 5.9 5.8 5.6 5.8 5.5
7.2 7.4 7.5 7.5 7.2 6.9 6.8 6.9 7.0 7.0 7.0 6.9 6.9 7.0 7.1 7.1 7.2 7.2 7.4 7.6 7.6 7.5 7.4 7.3 7.1 6.7 6.6 6.8 6.7 6.6 6.5 6.6 6.6 6.4 6.3 6.5 6.3 6.2 6.0 5.9 5.7 5.4 5.5
7.2 7.2 7.3 6.9 6.7 6.9 6.9 7.0 6.9 6.8 6.8 6.8 6.8 6.9 7.1 7.2 7.1 7.1 7.1 7.1 7.0 7.0 7.1 6.7 6.2 6.2 6.3 6.2 6.4 6.5 6.5 6.4 6.3 5.9 6.5 6.3 6.2 6.2 6.3 6.2 6.2 5.3 5.2
6.7 6.8 6.6 6.8 6.8 7.0 6.8 6.6 6.5 6.6 6.7 6.7 6.7 6.8 6.9 7.0 6.9 6.8 6.6 6.6 6.4 6.3 6.2 6.0 5.9 5.7 5.7 5.8 6.1 6.2 6.2 6.1 6.5 6.5 6.2 6.1 6.1 6.1 6.1 6.1 6.2 6.1 5.7
6.7 6.8 6.9 6.9 6.8 6.5 6.3 6.2 6.2 6.2 6.2 6.4 6.6 6.8 7.0 7.1 6.8 6.5 5.9 5.9 5.9 5.9 5.9 5.7 5.6 5.6 5.7 5.8 5.8 5.9 5.8 6.0 6.4 6.3 6.0 5.9 5.8 5.8 5.7 5.5 5.8 6.0 6.0
6.7 7.0 6.8 6.3 6.2 6.1 5.9 5.7 5.7 5.8 5.9 6.3 6.8 7.1 7.2 6.8 6.5 5.7 5.6 5.2 5.2 5.5 5.6 5.6 5.4 5.6 5.6 5.5 5.6 5.8 6.0 6.3 6.1 5.9 6.0 5.9 5.8 5.8 5.8 5.6 5.6 5.6 5.7
6.7 6.4 6.2 6.1 6.0 5.9 5.7 5.7 5.8 5.9 6.0 6.4 6.7 6.9 6.9 6.0 5.4 4.6 4.8 4.9 5.3 5.3 5.3 5.4 5.5 5.4 5.4 5.4 5.7 5.5 5.6 5.6 5.5 5.6 5.5 5.3 5.3 5.4 5.4 5.4 5.6 5.6 5.6
6.3 6.1 6.0 5.8 5.8 5.9 5.8 5.8 5.9 6.1 6.2 6.2 6.7 6.5 6.1 5.2 5.0 4.6 4.3 4.6 4.8 4.9 5.3 5.3 5.2 5.2 5.3 5.6 5.9 5.5 4.6 5.0 4.5 5.3 4.9 5.1 5.3 5.2 5.4 5.4 5.6 5.4 5.4
6.1 5.9 5.8 5.9 5.9 5.8 5.9 6.0 6.0 6.0 6.2 6.3 6.2 5.7 5.3 4.3 4.1 4.5 4.5 4.5 4.7 4.7 4.8 5.0 5.0 4.8 4.9 5.1 5.0 5.1 5.0 4.5 4.3 4.4 3.6 4.2 4.7 4.8 5.3 5.0 5.3 5.4 5.3
6.1 5.8 5.7 5.6 5.6 5.8 5.9 5.9 6.0 6.0 6.3 6.2 5.8 5.5 5.2 4.6 4.2 3.7 3.7 4.0 4.0 4.4 4.8 4.8 4.7 4.9 5.0 5.3 4.9 5.1 4.8 4.5 4.4 4.5 4.4 4.1 4.0 3.9 4.3 4.8 4.8 5.0 5.0
6.0 5.6 5.5 5.4 5.5 5.8 5.9 5.9 6.1 6.1 6.1 6.0 5.8 5.4 5.3 5.0 4.6 4.3 4.1 3.8 4.1 4.1 4.3 4.5 4.7 5.0 5.2 5.2 5.4 4.8 4.7 4.5 4.5 4.3 4.2 4.3 4.1 4.2 3.9 4.2 4.7 5.0 5.0
5.9 5.5 5.4 5.4 5.3 5.5 5.7 5.8 5.8 6.1 6.0 5.9 5.8 5.8 5.8 5.7 5.4 4.3 4.1 4.4 4.4 4.6 4.8 4.8 5.0 5.0 5.2 5.0 4.7 4.7 4.7 4.5 4.5 4.3 4.3 4.3 3.9 3.8 3.9 4.5 4.7 4.7 4.7
5.8 5.4 5.5 5.3 5.1 5.2 5.4 5.8 5.9 6.0 6.2 5.9 5.9 5.8 5.8 5.7 5.5 5.8 5.1 4.7 4.9 4.8 5.1 5.3 5.1 5.2 5.2 5.1 5.0 4.7 4.6 4.4 4.3 4.2 4.0 3.9 3.9 4.2 4.3 4.3 4.8 5.2 5.1
5.8 5.6 5.5 5.3 5.2 5.3 5.2 5.7 5.8 5.8 6.0 6.0 5.8 5.6 5.7 5.7 5.7 5.4 5.6 6.0 5.7 5.6 5.6 5.6 5.5 5.7 5.6 5.8 5.3 4.9 4.7 4.6 4.4 4.4 4.4 4.3 4.3 4.5 4.8 5.0 4.7 4.8 5.1
6.0 5.7 5.5 5.4 5.3 5.6 5.5 5.6 5.6 5.7 5.9 6.0 5.6 5.7 5.8 5.6 5.7 5.7 5.7 5.8 6.2 6.4 6.2 6.2 6.1 6.0 6.0 5.9 5.9 5.7 5.8 5.3 5.2 4.8 4.8 4.8 5.0 5.0 5.0 5.0 5.1 5.3 5.5
5.9 5.7 5.8 5.8 5.6 5.8 5.9 5.6 5.7 5.9 5.9 5.7 5.8 6.0 5.7 5.6 5.6 5.9 5.8 5.7 5.8 6.0 6.2 6.3 6.2 6.1 6.0 6.2 6.4 6.3 6.4 6.3 6.2 6.1 6.2 6.1 6.1 6.1 6.1 6.0 5.8 5.8 5.8
6.2 6.1 6.0 6.0 5.8 5.8 5.9 5.8 5.9 5.9 5.7 5.8 5.9 5.7 5.6 5.6 5.8 6.0 5.9 5.7 5.7 5.9 5.9 6.0 6.1 6.1 6.3 6.2 6.3 6.3 6.2 6.1 5.9 5.7 5.7 6.0 5.9 6.2 6.3 6.3 6.4 6.4 6.3
6.4 6.3 6.1 5.9 5.7 5.9 6.1 6.0 5.9 5.7 5.5 5.6 5.8 5.7 5.6 5.8 5.9 6.1 5.9 5.8 5.8 5.8 5.8 6.1 6.3 6.4 6.2 6.2 6.2 6.1 6.1 6.2 5.8 5.9 6.0 6.1 6.1 6.2 6.1 6.1 6.1 6.1 6.0
6.6 6.4 6.1 5.8 6.0 5.8 6.1 6.2 6.0 5.9 5.9 5.8 5.8 5.7 5.7 5.7 5.7 5.9 6.1 6.1 6.1 6.2 6.1 6.2 6.3 6.5 6.4 6.3 6.3 6.5 6.6 6.3 6.2 6.1 6.0 6.0 6.1 6.2 6.2 6.2 6.2 6.2 6.2
Wind_Speed
8 6 6 5 6 6 5 5 5 4 4 6 6 6 6 7 7 6 8 9 10 10 9 10 12 11 8 8 8 8 8 6 8 6 4 2 3 5 6 8 10 11 11
8 6 5 5 5 5 3 2 2 1 3 5 5 6 6 6 7 7 8 8 10 11 11 11 12 8 12 10 9 12 9 9 7 12 6 3 4 5 7 8 6 8 7
9 10 7 6 6 5 5 5 4 4 4 5 5 5 7 8 8 8 9 10 10 12 13 13 13 11 12 9 11 10 10 8 9 8 5 2 2 1 4 5 5 5 6
8 8 8 7 5 4 4 4 4 4 4 4 5 6 8 9 9 9 10 11 11 11 12 12 12 13 13 12 11 12 10 10 9 7 5 4 3 4 4 2 1 4 3
8 6 6 4 5 5 5 5 5 5 6 6 7 7 8 8 8 8 9 10 11 12 12 12 13 15 17 15 9 11 11 9 6 5 3 3 3 3 3 1 2 3 4
6 5 4 5 6 6 6 7 7 8 8 8 8 8 9 8 10 13 14 11 12 12 12 12 12 14 15 16 16 13 13 11 7 5 5 7 4 3 2 2 3 2 2
4 3 5 5 7 6 5 5 7 8 9 10 10 10 10 12 14 15 18 11 12 11 12 12 11 8 12 10 11 9 9 8 6 6 6 6 5 6 6 4 2 2 2
5 2 5 6 5 5 7 9 10 10 10 10 11 10 10 9 12 14 19 13 12 13 13 13 14 13 10 10 9 8 8 7 6 4 5 6 5 7 7 4 4 6 6
4 5 4 5 8 10 12 11 11 10 10 10 10 11 11 10 12 15 15 10 10 14 12 12 10 11 10 14 11 10 8 6 3 9 5 5 7 9 9 8 6 7 3
4 2 5 9 11 11 9 9 9 8 8 8 9 9 10 9 10 14 14 7 9 7 9 8 8 9 14 16 13 12 12 9 9 9 7 7 7 8 8 5 7 7 4
3 6 8 7 8 7 6 7 9 8 7 7 9 8 9 10 12 16 18 8 7 7 6 4 4 7 10 14 10 10 9 11 11 10 8 6 5 5 4 4 3 6 4
4 6 6 6 5 5 5 7 8 8 9 10 10 9 8 11 15 16 16 14 14 6 6 6 6 11 11 13 8 7 11 12 9 9 8 7 7 7 5 6 6 6 5
5 6 4 4 5 6 6 8 6 8 6 8 9 9 9 9 9 18 14 15 14 7 6 8 10 9 8 5 8 15 15 9 9 8 8 7 6 8 10 10 11 11 11
6 5 4 3 5 4 4 3 4 4 5 5 7 8 8 9 8 9 8 8 11 8 9 7 9 9 10 12 10 6 7 1 10 10 8 8 7 7 8 7 8 8 9
5 4 4 3 3 1 1 2 3 2 2 3 3 3 5 8 9 11 7 7 6 6 6 5 7 7 6 7 8 9 9 9 6 7 6 6 7 6 6 5 6 5 6
5 3 2 1 0 1 2 3 3 3 4 3 3 1 3 3 11 13 14 15 14 13 6 6 7 7 8 7 7 9 9 9 3 5 3 4 5 4 6 3 4 5 6
5 4 3 2 1 1 2 2 4 4 6 6 7 9 5 3 11 14 14 13 14 10 6 6 6 6 6 6 7 8 9 6 6 6 4 5 4 3 4 5 4 5 5
5 6 3 3 2 2 1 0 1 2 3 4 6 4 8 9 10 11 13 9 9 9 7 6 6 5 4 3 5 4 4 3 6 4 3 3 3 2 2 3 4 4 5
5 4 4 3 2 2 2 2 1 1 2 3 3 4 6 9 9 8 8 4 4 5 5 6 5 5 5 5 4 4 2 3 3 3 3 4 5 4 3 3 3 4 4
6 8 7 4 3 3 3 3 3 3 3 3 4 4 4 4 4 4 4 4 3 3 3 4 5 5 6 5 4 4 4 4 3 2 3 2 3 3 4 4 4 3 3
5 5 8 5 5 5 4 4 4 4 4 5 5 6 7 3 6 5 5 4 4 2 2 2 4 3 3 4 3 1 3 3 2 1 2 2 3 2 2 1 2 2 2
6 6 6 6 5 5 6 5 5 5 5 6 7 6 5 4 4 5 5 4 4 4 4 3 3 4 5 3 4 4 3 2 2 1 0 1 2 2 2 2 2 2 2
5 5 5 4 5 5 5 5 5 5 6 6 6 6 5 5 5 4 4 5 3 3 3 4 4 4 4 4 3 3 4 3 2 2 2 2 2 1 1 1 1 1 0
6 6 4 5 5 5 6 6 4 6 6 7 6 5 4 5 5 5 4 3 3 3 2 3 4 5 5 4 3 4 5 6 3 1 3 2 3 3 2 2 2 1 1
7 6 6 6 4 5 5 5 5 5 5 5 5 5 6 5 4 4 4 2 3 3 2 1 2 3 4 3 3 3 2 3 4 5 3 3 4 4 2 1 1 1 2
8 8 5 4 4 5 5 4 5 4 5 5 5 5 5 5 5 4 4 3 3 3 3 2 2 3 3 3 4 5 5 6 7 7 6 3 3 2 2 1 2 2 3
Wind_Direction
165 166 141 160 189 200 209 218 237 258 280 274 274 281 280 275 264 254 257 258 249 252 242 239 242 236 225 219 213 220 211 191 227 269 278 295 291 261 289 277 254 244 247
140 129 124 124 138 146 151 115 75 15 341 318 319 313 303 292 277 273 277 273 263 260 253 247 245 237 226 222 213 218 213 201 213 249 249 258 252 307 287 284 268 242 241
101 104 92 89 90 80 66 52 37 8 331 326 325 313 303 298 293 282 274 274 268 262 258 248 248 241 239 224 215 216 213 216 218 227 241 225 286 279 271 253 251 230 223
45 68 74 67 64 64 49 18 351 346 323 312 306 302 291 287 282 281 277 269 266 262 258 254 253 246 245 236 223 216 199 200 205 209 227 244 228 253 253 265 155 45 62
45 54 53 55 60 47 29 8 339 334 327 318 307 296 290 288 286 284 283 285 279 276 272 263 257 249 243 237 224 220 205 202 193 204 218 234 217 229 235 122 94 94 51
34 29 9 45 43 32 15 1 355 345 328 312 297 285 282 288 289 286 287 285 279 272 273 271 260 250 247 235 217 206 196 184 191 185 190 226 205 199 176 129 142 139 99
84 17 28 34 37 22 7 4 355 339 334 326 317 314 311 311 306 292 295 289 290 282 280 275 270 255 237 221 198 184 195 193 191 179 186 197 187 185 157 156 144 108 111
82 61 40 38 28 15 19 13 3 350 337 328 320 306 302 309 296 300 302 300 291 279 271 273 271 262 221 185 170 168 181 187 176 162 202 190 198 173 169 152 126 110 95
75 53 38 35 39 28 18 6 357 340 332 325 312 307 302 304 319 338 323 300 285 284 276 273 267 260 192 169 169 173 172 175 106 133 203 204 151 149 146 131 134 136 119
71 59 50 47 41 26 11 4 350 338 315 318 312 328 359 347 328 335 346 312 296 293 292 283 262 240 183 178 178 179 182 179 152 121 124 126 134 140 144 149 152 151 132
82 56 58 50 47 30 10 10 9 358 339 343 346 345 354 351 334 338 342 340 323 313 321 323 302 232 201 194 204 194 203 148 124 122 131 126 117 112 104 111 111 147 144
100 82 74 67 62 25 357 4 10 356 8 11 2 2 0 353 347 345 338 354 351 352 351 336 324 322 202 200 184 167 147 125 130 135 134 129 127 114 94 88 88 85 73
113 98 98 69 57 36 31 24 14 3 14 14 15 9 0 356 360 353 347 355 358 10 13 11 9 21 61 62 349 152 153 147 143 143 138 130 120 121 116 104 91 82 71
113 111 102 88 66 39 33 16 26 7 11 16 9 5 358 356 0 348 358 358 357 7 10 11 16 26 64 98 87 61 54 273 153 132 131 120 125 125 112 112 105 97 88
112 101 87 68 46 23 341 14 39 36 6 1 18 342 342 352 346 331 356 356 349 359 353 25 42 32 37 57 75 98 72 57 32 99 120 137 128 125 113 117 115 91 110
109 114 125 135 62 3 6 5 296 300 314 4 255 45 343 312 335 347 352 360 5 1 29 31 35 49 42 38 69 89 72 89 26 37 53 119 126 119 119 115 115 118 130
145 156 163 162 126 71 34 33 8 329 321 325 338 342 3 306 0 0 3 353 16 15 27 32 26 37 55 47 64 65 90 92 85 66 61 44 62 103 101 116 115 115 115
171 160 166 190 191 171 192 113 42 1 354 334 321 327 324 352 353 359 4 4 26 24 26 22 23 13 20 56 71 53 54 88 107 98 87 95 51 56 74 134 131 121 137
180 183 194 205 213 207 218 250 280 312 307 305 316 330 325 350 345 349 5 25 11 21 11 19 16 22 29 22 23 51 73 135 142 137 151 159 172 175 131 135 131 129 140
199 189 186 203 226 226 229 246 271 274 290 297 304 296 309 345 348 337 354 360 3 351 3 23 14 4 359 12 10 31 43 49 66 106 129 151 166 160 157 151 151 150 189
182 192 198 204 224 227 238 238 254 268 279 288 284 279 259 291 304 306 317 319 307 310 330 355 332 321 293 314 300 18 81 92 107 143 147 135 138 144 146 144 147 162 158
190 195 194 217 226 231 243 242 248 259 271 280 284 288 269 284 286 280 295 292 291 265 256 239 271 290 296 320 328 332 343 344 355 345 306 141 124 107 120 152 170 182 178
189 190 195 224 237 240 257 254 252 253 262 266 277 292 305 307 302 297 295 299 284 280 275 256 245 254 255 271 251 272 297 308 307 272 268 173 155 179 217 211 179 154 225
182 175 184 220 226 241 247 261 258 255 262 276 286 294 291 295 302 312 311 310 307 297 235 226 249 259 289 286 259 239 250 275 265 87 103 131 142 145 149 156 138 128 311
195 188 204 217 223 241 245 251 257 258 265 269 281 279 284 276 283 289 315 303 310 308 309 314 235 251 248 253 252 237 238 198 167 135 135 159 145 136 126 104 48 333 308
196 201 213 208 222 232 229 226 238 249 262 267 269 267 272 279 268 268 281 293 286 293 287 278 283 267 261 250 239 210 176 174 156 148 147 147 136 121 95 37 1 320 311